{"data":{"norad_id":68183,"epoch":"2026-09-19T21:05:45.376224Z","epoch_age_seconds":109729,"freshness":"FRESH","line1":"1 68183U 26050S   26262.87899741  .00010597  00000+0  32432-3 0  9998","line2":"2 68183  53.1617  80.5578 0001416  90.7428 269.3737 15.34401315 30474","mean_motion":15.34401315,"eccentricity":0.0001416,"inclination_deg":53.1617,"raan_deg":80.5578,"arg_perigee_deg":90.7428,"mean_anomaly_deg":269.3737,"bstar":0.00032432,"rev_number":3047,"period_min":93.847677652701,"perigee_km":461.7306693282,"apogee_km":463.66799417735,"semimajor_km":6840.8363317528,"source":"CELESTRAK","updated_at":"2026-09-20T09:00:43.801958Z"}}